Location: Newark
(35.5300°N, 14.3000°E)
Time: 23:36:07
(UTC+00:00)

Transit 4A - Pass Details

Date: 26 November 2019
Orbit: 871 x 973 km, 66.8° (Epoch: 21 January)

Event Time Altitude Azimuth Distance (km) Brightness Sun altitude
Exits shadow 04:41:21 - 331° (NNW) 2,769 10.0 -13.6°
Reaches altitude 10° 04:41:58 10° 331° (NNW) 2,539 9.8 -13.5°
Maximum altitude 04:47:49 82° 245° (WSW) 884 7.7 -12.4°
Drops below altitude 10° 04:53:37 10° 158° (SSE) 2,510 10.7 -11.2°
Sets 04:56:05 0° 158° (SSE) 3,447 11.5 -10.8°
